Regional Weather Roundup
Issued by NWS

Home | Current Version | Previous Version | Text Only | Print | Product List | Glossary Off
Versions: 1 2 3 4 5 6 7 8 9 10 11 12 13 14 15 16 17 18 19 20 21 22 23 24 25 26 27 28 29 30 31 32 33 34 35 36 37 38 39 40 41 42 43 44 45 46 47 48 49 50

000
ASUS43 KFSD 221002
RWRSD

WEATHER ROUNDUP FOR SOUTH DAKOTA
NATIONAL WEATHER SERVICE SIOUX FALLS SD
400 AM CST SUN JAN 22 2017

NOTE: "FAIR" INDICATES FEW OR NO CLOUDS BELOW 12,000 FEET WITH NO
SIGNIFICANT WEATHER AND/OR OBSTRUCTIONS TO VISIBILITY.


SDZ001>005-009-010-012>017-221100-
NORTHWEST AND NORTH CENTRAL SOUTH DAKOTA

CITY           SKY/WX    TMP DP  RH WIND       PRES   REMARKS
BUFFALO          N/A     23  19  85 NW7       29.64R WCI  15
FAITH            N/A     21  18  88 NW13      29.69R WCI   9
MOBRIDGE       CLOUDY    14  10  84 N6        29.67R WCI   5
$$

SDZ012>016-024>037-041>051-057-063-072>074-221100-
SOUTHWEST AND SOUTH CENTRAL SOUTH DAKOTA

CITY           SKY/WX    TMP DP  RH WIND       PRES   REMARKS
RAPID CTY ARPT CLOUDY    27  20  75 NW8       29.72R WCI  19
PIERRE         CLOUDY    19  16  88 W12       29.71R WCI   7
CUSTER         CLOUDY    21  17  84 CALM      29.70R
PHILIP         CLOUDY    22  20  92 W12       29.73R WCI  10
PINE RIDGE     MOCLDY    13  11  92 CALM      29.75R
SPEARFISH      FAIR      28  19  69 W9        29.72R WCI  20
WINNER         FAIR      26  23  88 NW7       29.71R WCI  18
$$

SDZ004>011-016>023-039-040-221100-
NORTHEAST SOUTH DAKOTA

CITY           SKY/WX    TMP DP  RH WIND       PRES   REMARKS
ABERDEEN       CLOUDY    28  25  88 W7        29.69R WCI  21
WATERTOWN      CLOUDY    32  31  96 NW7       29.62S FOG     WCI  26
BROOKINGS      LGT SNOW  32  31  96 NW9       29.62S FOG     WCI  24
SISSETON         N/A     34  34 100 N8        29.64R WCI  27
$$

SDZ017-020-022-023-036>040-048>070-221100-
SOUTHEAST SOUTH DAKOTA

CITY           SKY/WX    TMP DP  RH WIND       PRES   REMARKS
SIOUX FALLS    CLOUDY    33  30  88 NW10      29.64R WCI  25
HURON          CLOUDY    30  28  92 NW14      29.69R WCI  19
CHAMBERLAIN    CLEAR     22  21  97 CALM      29.71R
MITCHELL       CLOUDY    31  29  92 NW7       29.69R WCI  24
YANKTON        CLOUDY    30  27  86 NW9       29.67R WCI  22
$$

ABBREVIATIONS USED IN REMARKS
   TC - TEMPERATURE IN CELSIUS
  WCI - WIND CHILL INDEX
   HX - HEAT INDEX
  VSB - VISIBILITY




USA.gov is the U.S. government's official web portal to all federal, state and local government web resources and services.